[[{"header":{"parameterUnit":"m.s-1","parameterCategory":1,"la1":30.2991,"la2":30.254,"lo1":-89.0895,"lo2":-89.0444,"dy":0.0017,"dx":0.0017,"nx":28,"ny":28,"refTime":"2025-02-12T03:00:00:Z","depth":0,"parameterNumber":2,"parameterNumberName":"U-component_of_WINDS"},"data":[0,0,0,0,0,0,0,0,0,0,0,0,0,0,0,0,0,0,0,0,0,0,0,0,0,0,0,0,0,0,0,0,0,0,0,0,0,0,0,0,0,0,0,0,0,0,0,0,0,0,0,0,0,0,0,0,0,0,-2.5012,-2.5013,0,-2.5076,-2.5077,-2.5077,-2.5052,-2.505,-2.5049,-2.5047,-2.5112,-2.5115,-2.5118,0,0,0,0,0,0,0,0,0,0,0,0,0,-2.4866,-2.4869,-2.5012,-2.5013,-2.5013,-2.5076,-2.5077,-2.5077,-2.5052,-2.505,-2.5048,-2.5046,-2.5111,-2.5115,-2.5119,0,0,0,0,0,0,0,0,0,0,0,0,0,-2.493,-2.487,-2.5012,-2.5008,-2.5008,-2.5076,-2.5077,-2.5078,-2.5052,-2.505,-2.5048,-2.5046,-2.511,-2.5114,-2.5119,-2.5193,0,0,-2.5133,-2.5135,0,0,0,0,0,0,0,0,-2.4926,-2.4935,-2.5008,-2.5008,-2.5009,-2.5053,-2.5049,-2.5116,-2.5053,-2.5036,-2.5047,-2.5044,-2.5094,-2.51,-2.5117,-2.5196,-2.5199,-2.5134,-2.5137,-2.5139,-2.514,0,0,0,0,0,0,0,-2.4922,-2.4932,-2.5037,-2.5009,-2.501,-2.5003,-2.5009,-2.5062,-2.5077,-2.5037,-2.5035,-2.5043,-2.5094,-2.5113,-2.5119,-2.52,-2.5134,-2.5138,-2.5141,-2.5143,-2.5342,-2.5345,0,0,0,0,0,0,-2.4917,-2.4929,-2.5035,-2.5039,-2.4961,-2.5007,-2.5015,-2.5041,-2.5076,-2.5079,-2.5045,-2.5042,-2.5106,-2.5113,-2.5121,-2.521,-2.5139,-2.5143,-2.5146,-2.534,-2.5343,-2.5346,0,0,0,0,0,0,-2.4914,-2.4927,-2.5032,-2.4983,-2.4996,-2.5012,-2.5043,-2.5044,-2.5062,-2.5082,-2.5085,-2.5061,-2.5104,-2.5114,-2.5175,-2.5212,-2.5145,-2.515,-2.5337,-2.5341,-2.5344,-2.5389,0,0,0,0,0,0,-2.491,-2.4926,-2.4955,-2.4984,-2.4999,-2.5087,-2.5045,-2.5047,-2.5071,-2.5067,-2.5098,-2.5101,-2.5103,-2.5168,-2.518,-2.5217,-2.5153,-2.5334,-2.5339,-2.5343,-2.5384,-2.5393,-2.5401,0,0,0,0,0,-2.4905,-2.4965,-2.4957,-2.497,-2.5035,-2.5089,-2.5097,-2.5099,-2.5074,-2.5102,-2.5115,-2.51,-2.5206,-2.5175,-2.5188,-2.5227,-2.5332,-2.5337,-2.5343,-2.538,-2.5392,-2.5401,0,0,0,0,0,0,-2.4939,-2.4969,-2.496,-2.5031,-2.5058,-2.5084,-2.5121,-2.5111,-2.5145,-2.514,-2.514,-2.5147,-2.521,-2.5224,-2.519,-2.53,-2.5265,-2.5273,-2.5289,-2.53,-2.5308,-2.5304,-2.5157,0,0,0,0,0,-2.4955,-2.4997,-2.502,-2.508,-2.5094,-2.5105,-2.5128,-2.5127,-2.5155,-2.5166,-2.5183,-2.521,-2.5249,-2.5275,-2.5312,-2.5385,-2.5392,-2.5418,-2.5427,-2.5434,-2.5442,-2.5481,-2.5493,-2.5364,-2.5364,-2.5364,0,0,-2.4989,-2.5009,-2.5036,-2.5087,-2.5108,-2.515,-2.5115,-2.5161,-2.5193,-2.5173,-2.5232,-2.5245,-2.5275,-2.5343,-2.5373,-2.5356,-2.5478,-2.5441,-2.5447,-2.5451,-2.5488,-2.55,-2.5511,-2.5368,-2.5367,-2.5367,0,0,-2.5071,-2.5091,-2.5143,-2.5164,-2.5196,-2.5203,-2.5215,-2.5244,-2.5252,-2.5311,-2.5297,-2.5334,-2.5401,-2.5423,-2.5443,-2.5532,-2.552,-2.5544,-2.559,-2.5629,-2.5639,-2.5648,-2.568,-2.5691,-2.5552,-2.5552,-2.5552,0,-2.5108,-2.5172,-2.5172,-2.5219,-2.5242,-2.5226,-2.5279,-2.5299,-2.5341,-2.5357,-2.5337,-2.5421,-2.544,-2.5513,-2.5534,-2.5551,-2.5565,-2.5541,-2.5637,-2.5646,-2.5655,-2.5685,-2.5697,-2.5554,-2.5554,-2.5554,-2.5554,0,-2.5216,-2.5261,-2.5299,-2.534,-2.5367,-2.5417,-2.5424,-2.5451,-2.5447,-2.5456,-2.5516,-2.5538,-2.5579,-2.5596,-2.5592,-2.5668,-2.5656,-2.5637,-2.5602,-2.567,-2.5699,-2.571,-2.5559,-2.5557,-2.5557,-2.5556,0,0,-2.5324,-2.5363,-2.5377,-2.5395,-2.5428,-2.5462,-2.5511,-2.5551,-2.5575,-2.5604,-2.5644,-2.5701,-2.5684,-2.5706,-2.5705,-2.5738,-2.5807,-2.5715,-2.5715,-2.5732,-2.5892,-2.5906,-2.592,-2.5799,-2.5801,-2.5803,-2.5889,0,-2.5409,-2.5495,-2.5496,-2.5575,-2.5615,-2.56,-2.5642,-2.5666,-2.5676,-2.5711,-2.5721,-2.5761,-2.5734,-2.5748,-2.578,-2.5792,-2.584,-2.5786,-2.5837,-2.5839,-2.5831,-2.5935,-2.5951,-2.6031,-2.59,-2.5902,-2.5904,0,-2.552,-2.5553,-2.5636,-2.5663,-2.568,-2.5718,-2.5754,-2.5789,-2.5815,-2.582,-2.5844,-2.5838,-2.5886,-2.5849,-2.5916,-2.588,-2.59,-2.5909,-2.5912,-2.5918,-2.5876,-2.5944,-2.6057,-2.6069,-2.5921,-2.592,-2.5918,0,-2.5591,-2.5655,-2.5713,-2.5729,-2.5761,-2.5789,-2.5803,-2.5828,-2.5852,-2.5883,-2.5899,-2.5935,-2.5956,-2.5984,-2.5987,-2.5959,-2.6055,-2.6017,-2.6059,-2.6059,-2.6081,-2.608,-2.62,-2.6093,-2.6093,-2.6093,-2.6093,0,-2.5687,-2.5738,-2.5745,-2.5781,-2.5838,-2.5838,-2.5894,-2.5906,-2.5928,-2.5966,-2.5954,-2.5989,-2.599,-2.6026,-2.6029,-2.6084,-2.6093,-2.6097,-2.6098,-2.6099,-2.6099,-2.6113,-2.6108,-2.6096,-2.6095,-2.6095,-2.6094,0,-2.5775,-2.5782,-2.5845,-2.587,-2.5877,-2.5918,-2.5939,-2.5973,-2.598,-2.6028,-2.6039,-2.605,-2.6092,-2.6097,-2.6146,-2.6147,-2.6214,-2.6208,-2.6205,-2.6204,-2.6246,-2.6242,-2.638,-2.6398,-2.6279,-2.628,-2.6281,0,-2.5837,-2.5876,-2.5905,-2.5929,-2.5945,-2.5985,-2.6009,-2.6009,-2.6035,-2.6068,-2.6098,-2.6138,-2.617,-2.6237,-2.625,-2.6286,-2.6281,-2.6327,-2.6287,-2.6287,-2.6282,-2.628,-2.6284,-2.6335,-2.6337,-2.6338,-2.6339,0,-2.5944,-2.5946,-2.5981,-2.6018,-2.6047,-2.6076,-2.6103,-2.6123,-2.6127,-2.6156,-2.6198,-2.6224,-2.6273,-2.6313,-2.6349,-2.6363,-2.6352,-2.6351,-2.6363,-2.6365,-2.6362,-2.6364,-2.6227,-2.6348,-2.6347,-2.6346,-2.6346,-2.6345,-2.6022,-2.6056,-2.6081,-2.6121,-2.6141,-2.6167,-2.6199,-2.6211,-2.6246,-2.6287,-2.6284,-2.6331,-2.6355,-2.6403,-2.6419,-2.6455,-2.644,-2.6457,-2.6462,-2.6466,-2.647,-2.6355,-2.6462,-2.6462,-2.6461,-2.6461,-2.6461,0,-2.6129,-2.6144,-2.6181,-2.6219,-2.625,-2.6236,-2.6265,-2.6292,-2.6333,-2.6357,-2.6389,-2.6437,-2.6476,-2.6491,-2.6528,-2.6554,-2.655,-2.6564,-2.6562,-2.6566,-2.6482,-2.6468,-2.6567,-2.6567,-2.6567,-2.6567,-2.6567,-2.6567,-2.6189,-2.6246,-2.625,-2.6316,-2.6331,-2.6377,-2.6394,-2.6417,-2.6437,-2.6491,-2.6523,-2.6532,-2.6553,-2.6591,-2.6626,-2.6629,-2.6643,-2.666,-2.6661,-2.6583,-2.6572,-2.6562,-2.6549,-2.6663,-2.6663,-2.6743,-2.6743,-2.6744]},{"header":{"parameterUnit":"m.s-1","parameterCategory":1,"la1":30.2991,"la2":30.254,"lo1":-89.0895,"lo2":-89.0444,"dy":0.0017,"dx":0.0017,"nx":28,"ny":28,"refTime":"2025-02-12T03:00:00:Z","depth":0,"parameterNumber":3,"parameterNumberName":"V-component_of_WINDS"},"data":[0,0,0,0,0,0,0,0,0,0,0,0,0,0,0,0,0,0,0,0,0,0,0,0,0,0,0,0,0,0,0,0,0,0,0,0,0,0,0,0,0,0,0,0,0,0,0,0,0,0,0,0,0,0,0,0,0,0,-7.0511,-7.0512,0,-7.0625,-7.0627,-7.0628,-7.0562,-7.0559,-7.0556,-7.0553,-7.0664,-7.067,-7.0676,0,0,0,0,0,0,0,0,0,0,0,0,0,-7.0229,-7.0235,-7.051,-7.0512,-7.0513,-7.0625,-7.0627,-7.0628,-7.0563,-7.0559,-7.0555,-7.0551,-7.0662,-7.0669,-7.0676,0,0,0,0,0,0,0,0,0,0,0,0,0,-7.0348,-7.0237,-7.051,-7.0494,-7.0494,-7.0625,-7.0627,-7.0629,-7.0564,-7.0559,-7.0554,-7.055,-7.066,-7.0669,-7.0677,-7.0828,0,0,-7.0705,-7.0708,0,0,0,0,0,0,0,0,-7.0342,-7.0359,-7.0495,-7.0496,-7.0496,-7.0575,-7.0568,-7.0695,-7.0565,-7.0537,-7.0553,-7.0547,-7.0638,-7.0648,-7.068,-7.0833,-7.0838,-7.0705,-7.0711,-7.0715,-7.0717,0,0,0,0,0,0,0,-7.0333,-7.0353,-7.0556,-7.0497,-7.0498,-7.048,-7.0491,-7.0592,-7.0613,-7.0539,-7.0535,-7.0549,-7.0637,-7.0672,-7.0682,-7.084,-7.0705,-7.0713,-7.0718,-7.0722,-7.1123,-7.1128,0,0,0,0,0,0,-7.0327,-7.0347,-7.0552,-7.0559,-7.0405,-7.0489,-7.0502,-7.0554,-7.0611,-7.0616,-7.0553,-7.0546,-7.0659,-7.0672,-7.0686,-7.0867,-7.0714,-7.0723,-7.0728,-7.1118,-7.1124,-7.113,0,0,0,0,0,0,-7.0321,-7.0346,-7.0547,-7.0452,-7.0476,-7.0499,-7.0558,-7.0559,-7.0594,-7.0622,-7.0625,-7.0586,-7.0656,-7.0673,-7.0794,-7.087,-7.0727,-7.0735,-7.1111,-7.112,-7.1127,-7.123,0,0,0,0,0,0,-7.0314,-7.0344,-7.0403,-7.0454,-7.0482,-7.0656,-7.0563,-7.0565,-7.061,-7.0601,-7.0653,-7.0657,-7.0653,-7.0781,-7.0803,-7.0879,-7.0742,-7.1105,-7.1115,-7.1124,-7.122,-7.124,-7.1258,0,0,0,0,0,-7.0304,-7.0426,-7.0407,-7.0432,-7.0556,-7.066,-7.0676,-7.067,-7.0616,-7.0675,-7.0693,-7.0655,-7.0858,-7.0794,-7.0818,-7.0898,-7.11,-7.1112,-7.1124,-7.1211,-7.1236,-7.1258,0,0,0,0,0,0,-7.0381,-7.0432,-7.0411,-7.0554,-7.0604,-7.0649,-7.0722,-7.0697,-7.0761,-7.075,-7.0739,-7.0751,-7.0877,-7.0899,-7.0827,-7.1048,-7.097,-7.0988,-7.1029,-7.1053,-7.1071,-7.1063,-7.0749,0,0,0,0,0,-7.0415,-7.0498,-7.0537,-7.0659,-7.0685,-7.07,-7.0745,-7.0737,-7.0787,-7.0807,-7.0834,-7.0882,-7.0956,-7.1006,-7.1076,-7.1223,-7.1233,-7.129,-7.1309,-7.1324,-7.1339,-7.1419,-7.1445,-7.1169,-7.1169,-7.1169,0,0,-7.0486,-7.0524,-7.0576,-7.0676,-7.0713,-7.0797,-7.0718,-7.0809,-7.0871,-7.082,-7.0936,-7.0958,-7.1011,-7.1146,-7.1206,-7.1168,-7.1418,-7.134,-7.1352,-7.1358,-7.1434,-7.146,-7.1483,-7.1177,-7.1176,-7.1174,0,0,-7.0657,-7.0695,-7.0801,-7.0841,-7.0899,-7.0909,-7.0934,-7.0984,-7.0997,-7.1114,-7.1078,-7.115,-7.1278,-7.1318,-7.1355,-7.1543,-7.151,-7.1566,-7.1665,-7.1743,-7.1765,-7.1784,-7.1852,-7.1876,-7.158,-7.1581,-7.1581,0,-7.0737,-7.0864,-7.0858,-7.0954,-7.0999,-7.0958,-7.1065,-7.1103,-7.1181,-7.1212,-7.1168,-7.133,-7.1362,-7.1506,-7.1552,-7.1583,-7.1612,-7.156,-7.1763,-7.1782,-7.18,-7.1864,-7.1889,-7.1587,-7.1586,-7.1586,-7.1585,0,-7.0959,-7.1048,-7.1126,-7.1205,-7.1259,-7.1359,-7.1367,-7.1422,-7.1409,-7.1422,-7.1542,-7.158,-7.1657,-7.1691,-7.1678,-7.1833,-7.1808,-7.1764,-7.1686,-7.1833,-7.1893,-7.1917,-7.1596,-7.1594,-7.1592,-7.1591,0,0,-7.1182,-7.1258,-7.1287,-7.1323,-7.1385,-7.1452,-7.1551,-7.1629,-7.1676,-7.173,-7.1812,-7.1923,-7.1883,-7.1925,-7.1916,-7.1985,-7.2132,-7.1933,-7.1934,-7.1969,-7.2305,-7.2338,-7.2367,-7.2111,-7.2116,-7.2119,-7.2301,0,-7.1358,-7.1533,-7.1531,-7.1692,-7.1774,-7.1737,-7.1823,-7.1869,-7.1885,-7.1954,-7.197,-7.2049,-7.199,-7.2016,-7.2082,-7.21,-7.2199,-7.2087,-7.2186,-7.2189,-7.2174,-7.2398,-7.2433,-7.2602,-7.2324,-7.2328,-7.2331,0,-7.1587,-7.1652,-7.1822,-7.1874,-7.1908,-7.1985,-7.2057,-7.2125,-7.2176,-7.2182,-7.2231,-7.2212,-7.231,-7.223,-7.2365,-7.2289,-7.2329,-7.2344,-7.235,-7.2359,-7.2269,-7.2413,-7.2656,-7.2682,-7.2368,-7.2365,-7.2362,0,-7.1733,-7.1863,-7.1982,-7.2014,-7.2077,-7.2132,-7.216,-7.2207,-7.2255,-7.2317,-7.2347,-7.2419,-7.2458,-7.2514,-7.2514,-7.2456,-7.2651,-7.257,-7.2658,-7.2658,-7.2701,-7.2698,-7.2954,-7.2726,-7.2726,-7.2725,-7.2725,0,-7.193,-7.2035,-7.2049,-7.2122,-7.2239,-7.2235,-7.235,-7.2373,-7.2416,-7.2491,-7.2463,-7.2534,-7.2531,-7.2602,-7.2603,-7.2715,-7.2732,-7.2739,-7.2738,-7.2743,-7.2742,-7.2769,-7.2757,-7.2732,-7.2731,-7.2729,-7.2728,0,-7.2113,-7.2127,-7.2254,-7.2304,-7.2319,-7.2403,-7.2444,-7.2513,-7.2526,-7.2623,-7.2645,-7.2665,-7.2748,-7.2754,-7.2849,-7.285,-7.2986,-7.2971,-7.2969,-7.2967,-7.3054,-7.3046,-7.3337,-7.3375,-7.3122,-7.3124,-7.3126,0,-7.2238,-7.2319,-7.2378,-7.2429,-7.2461,-7.2541,-7.259,-7.2589,-7.2641,-7.2707,-7.2768,-7.2848,-7.2913,-7.3047,-7.3069,-7.3142,-7.3129,-7.3226,-7.314,-7.3142,-7.3131,-7.3127,-7.3135,-7.3243,-7.3246,-7.3248,-7.325,0,-7.2459,-7.2462,-7.2535,-7.2611,-7.2671,-7.273,-7.2785,-7.2827,-7.2833,-7.2892,-7.2978,-7.3029,-7.3128,-7.3208,-7.328,-7.3306,-7.328,-7.3277,-7.3301,-7.3306,-7.3302,-7.3306,-7.3015,-7.327,-7.3268,-7.3267,-7.3266,-7.3265,-7.2617,-7.2687,-7.2741,-7.2823,-7.2865,-7.2918,-7.2986,-7.3008,-7.3081,-7.3163,-7.3157,-7.3253,-7.3302,-7.3396,-7.3428,-7.3502,-7.3469,-7.3503,-7.3512,-7.3521,-7.3531,-7.3291,-7.3514,-7.3514,-7.3513,-7.3513,-7.3512,0,-7.2836,-7.287,-7.2946,-7.3025,-7.309,-7.3061,-7.3121,-7.3176,-7.3262,-7.3311,-7.3376,-7.3475,-7.3553,-7.3582,-7.3658,-7.3711,-7.3701,-7.3731,-7.3727,-7.3734,-7.3556,-7.3527,-7.3738,-7.3738,-7.3738,-7.3738,-7.3738,-7.3738,-7.2958,-7.3077,-7.3086,-7.3225,-7.3256,-7.3352,-7.3388,-7.3436,-7.3476,-7.3589,-7.3655,-7.3674,-7.3715,-7.3793,-7.3864,-7.387,-7.3899,-7.3935,-7.3936,-7.3769,-7.3746,-7.3725,-7.3698,-7.3941,-7.3942,-7.4108,-7.411,-7.4111]}]]